GAOFEN-10R

Last updated on Thu Nov 21 2024 00:02:28 GMT+0000 (Coordinated Universal Time)

1 44622U 19066A 24325.60163517 .00003651 00000+0 46621-3 0 9991 2 44622 97.9818 266.8665 0003623 163.6030 196.5301 14.82048274277386
UTC large
Height (km)
Speed (km/s)
/
Latitude / Longitude
Inclination (degrees)
Orbital Period (minutes)
Azimuth
Elevation
Range (km)
Doppler Factor

Next 0 passes for location: London (51.5072 / 0.1276)

Sorry there are no passes over London.